Deming, NM

5:44 PM MDT on April 26, 2017 (GMT -0600)
Deming Municipal

Weather History for KDMN - March, 2012

Change the Weather History Date:

Friday, March 9, 2012

  Actual Average Record
Temperature  
Mean Temperature 42 °F 50 °F  
Max Temperature 51 °F 66 °F 86 °F (1989)
Min Temperature 34 °F 34 °F 17 °F (1964)
Degree Days  
Heating Degree Days 22    
Moisture  
Dew Point 19 °F    
Average Humidity 40    
Maximum Humidity 52    
Minimum Humidity 27    
Precipitation  
Precipitation 0.00 in 0.02 in 0.39 in (1968)
Month to date precipitation 0.00 0.18  
Year to date precipitation 0.60 1.38  
Sea Level Pressure  
Sea Level Pressure 30.27 in    
Wind  
Wind Speed 17 mph (East)    
Max Wind Speed 29 mph    
Max Gust Speed 35 mph    
Visibility 10 miles    
Events      
T = Trace of Precipitation, MM = Missing Value Source: NWS Daily Summary

Daily Weather History Graph

Daily Weather History Graph

Search for Another Location

Airport or City:

Trip Planner

Search our weather history database for the weather conditions in past years. The results will help you decide how hot, cold, wet, or windy it might be!

Date:

Astronomy

Mar. 09, 2012 Rise Set
Actual Time 6:27 AM MST 6:14 PM MST
Civil Twilight 6:03 AM MST 6:39 PM MST
Nautical Twilight 5:35 AM MST 7:07 PM MST
Astronomical Twilight 5:06 AM MST 7:36 PM MST
Moon 8:07 PM MST (3/9) 6:57 AM MST (3/9)
Length of Visible Light 12h 35m
Length of Day
11h 47m
Full, 97% of the Moon is Illuminated
Mar 9
Full
Mar 14
Last Quarter
Mar 22
New
Mar 30
First Quarter
Apr 6
Full

Hourly Weather History & Observations

Time (MST) Temp. Windchill Dew Point Humidity Pressure Visibility Wind Dir Wind Speed Gust Speed Precip Events Conditions
12:53 AM 37.0 °F 27.4 °F 19.0 °F 48% 30.35 in 10.0 mi ENE 17.3 mph - N/A   Clear
1:53 AM 37.0 °F 26.7 °F 15.1 °F 41% 30.34 in 10.0 mi NE 19.6 mph - N/A   Clear
2:53 AM 36.0 °F 25.3 °F 15.1 °F 43% 30.32 in 10.0 mi NE 19.6 mph 31.1 mph N/A   Clear
3:53 AM 37.0 °F 25.6 °F 15.1 °F 41% 30.32 in 10.0 mi NE 24.2 mph 32.2 mph N/A   Clear
4:53 AM 35.1 °F 25.9 °F 16.0 °F 46% 30.34 in 10.0 mi ENE 13.8 mph - N/A   Clear
5:53 AM 35.1 °F 24.1 °F 17.1 °F 48% 30.35 in 10.0 mi ENE 19.6 mph 31.1 mph N/A   Clear
6:53 AM 35.1 °F 23.5 °F 19.0 °F 52% 30.37 in 10.0 mi NE 21.9 mph 31.1 mph N/A   Clear
7:53 AM 37.9 °F 27.1 °F 19.9 °F 48% 30.38 in 10.0 mi NE 23.0 mph 28.8 mph N/A   Clear
8:53 AM 41.0 °F 31.4 °F 19.9 °F 43% 30.38 in 10.0 mi NE 21.9 mph 28.8 mph N/A   Clear
9:53 AM 42.1 °F 33.6 °F 19.9 °F 41% 30.37 in 10.0 mi East 18.4 mph 28.8 mph N/A   Partly Cloudy
10:53 AM 45.0 °F 38.2 °F 19.0 °F 36% 30.34 in 10.0 mi ENE 15.0 mph - N/A   Clear
11:53 AM 46.9 °F - 18.0 °F 32% 30.30 in 10.0 mi East 16.1 mph 28.8 mph N/A   Overcast
12:53 PM 50.0 °F - 18.0 °F 28% 30.25 in 10.0 mi East 12.7 mph 24.2 mph N/A   Overcast
1:53 PM 50.0 °F - 18.0 °F 28% 30.21 in 10.0 mi ESE 15.0 mph 26.5 mph N/A   Mostly Cloudy
2:53 PM 50.0 °F - 19.0 °F 29% 30.19 in 10.0 mi ESE 16.1 mph 27.6 mph N/A   Scattered Clouds
3:53 PM 50.0 °F - 19.0 °F 29% 30.16 in 10.0 mi ESE 13.8 mph 25.3 mph N/A   Clear
4:53 PM 48.9 °F - 19.9 °F 32% 30.15 in 10.0 mi ESE 18.4 mph 25.3 mph N/A   Clear
5:53 PM 46.0 °F 39.6 °F 21.0 °F 37% 30.17 in 10.0 mi ESE 15.0 mph 24.2 mph N/A   Clear
6:53 PM 42.1 °F 35.2 °F 21.0 °F 43% 30.18 in 10.0 mi East 12.7 mph - N/A   Clear
7:53 PM 39.0 °F 32.3 °F 21.0 °F 49% 30.19 in 10.0 mi East 10.4 mph - N/A   Scattered Clouds
8:53 PM 37.9 °F 30.5 °F 21.0 °F 51% 30.20 in 10.0 mi East 11.5 mph - N/A   Partly Cloudy
9:53 PM 36.0 °F 29.0 °F 21.9 °F 57% 30.20 in 10.0 mi East 9.2 mph - N/A   Clear
10:53 PM 37.0 °F 31.0 °F 23.0 °F 57% 30.18 in 10.0 mi East 8.1 mph - N/A   Overcast
11:53 PM 37.9 °F 32.1 °F 23.0 °F 55% 30.15 in 10.0 mi East 8.1 mph - N/A   Overcast